Weather History for KPVC - October, 2012

Change the Weather History Date:

Sunday, October 7, 2012

  Actual Average Record
Temperature  
Mean Temperature 54 °F -  
Max Temperature 57 °F 60 °F 78 °F (2005)
Min Temperature 51 °F 49 °F 32 °F (1998)
Degree Days  
Heating Degree Days 11    
Growing Degree Days 4 (Base 50)    
Moisture  
Dew Point 44 °F    
Average Humidity 68    
Maximum Humidity 88    
Minimum Humidity 54    
Precipitation  
Precipitation 0.04 in - - ()
Sea Level Pressure  
Sea Level Pressure 30.03 in    
Wind  
Wind Speed 10 mph (NNW)    
Max Wind Speed 20 mph    
Max Gust Speed 24 mph    
Visibility 10 miles    
Events      
Averages and records for this station are not official NWS values.
T = Trace of Precipitation, MM = Missing Value Source: NWS Daily Summary

Daily Weather History Graph

Daily Weather History Graph

Search for Another Location

Airport or City:

Trip Planner

Search our weather history database for the weather conditions in past years. The results will help you decide how hot, cold, wet, or windy it might be!

Date:

Astronomy

Oct. 07, 2012 Rise Set
Actual Time 6:44 AM EDT 6:11 PM EDT
Civil Twilight 6:16 AM EDT 6:39 PM EDT
Nautical Twilight 5:44 AM EDT 7:11 PM EDT
Astronomical Twilight 5:12 AM EDT 7:44 PM EDT
Moon 11:15 PM EDT (10/7) 1:24 PM EDT (10/7)
Length of Visible Light 12h 22m
Length of Day
11h 26m
Waning Gibbous, 56% of the Moon is Illuminated
Oct 7
Waning Gibbous
Oct 8
Last Quarter
Oct 15
New
Oct 21
First Quarter
Oct 29
Full

Hourly Weather History & Observations

Time (EDT) Temp. Dew Point Humidity Pressure Visibility Wind Dir Wind Speed Gust Speed Precip Events Conditions
12:35 AM 57.2 °F 48.2 °F 72% 29.93 in 10.0 mi NW 16.1 mph 24.2 mph N/A   Scattered Clouds
12:55 AM 57.2 °F 46.4 °F 67% 29.93 in 10.0 mi NW 19.6 mph 24.2 mph N/A   Clear
1:15 AM 57.2 °F 48.2 °F 72% 29.94 in 10.0 mi NW 16.1 mph - N/A   Clear
1:36 AM 57.2 °F 46.4 °F 67% 29.95 in 10.0 mi NW 15.0 mph 21.9 mph N/A   Clear
1:55 AM 57.2 °F 42.8 °F 59% 29.96 in 10.0 mi NNW 15.0 mph 24.2 mph N/A   Clear
2:15 AM 57.2 °F 42.8 °F 59% 29.96 in 10.0 mi NNW 16.1 mph 21.9 mph N/A   Clear
2:35 AM 55.4 °F 42.8 °F 63% 29.97 in 10.0 mi NW 17.3 mph 20.7 mph N/A   Clear
3:15 AM 55.4 °F 39.2 °F 54% 29.97 in 10.0 mi NW 12.7 mph 20.7 mph N/A   Clear
3:35 AM 55.4 °F 41.0 °F 58% 29.98 in 10.0 mi NW 13.8 mph - N/A   Clear
3:55 AM 55.4 °F 41.0 °F 58% 29.98 in 10.0 mi NNW 12.7 mph - N/A   Clear
4:15 AM 55.4 °F 39.2 °F 54% 29.98 in 10.0 mi NNW 13.8 mph 18.4 mph N/A   Clear
4:35 AM 55.4 °F 39.2 °F 54% 29.98 in 10.0 mi NNW 13.8 mph - N/A   Clear
4:55 AM 55.4 °F 39.2 °F 54% 29.99 in 10.0 mi NNW 10.4 mph 16.1 mph N/A   Clear
5:15 AM 55.4 °F 41.0 °F 58% 30.00 in 10.0 mi NW 9.2 mph 17.3 mph N/A   Clear
5:35 AM 53.6 °F 39.2 °F 58% 30.00 in 10.0 mi NNW 10.4 mph - N/A   Clear
5:55 AM 53.6 °F 39.2 °F 58% 30.00 in 10.0 mi NNW 10.4 mph - N/A   Clear
6:15 AM 53.6 °F 39.2 °F 58% 30.00 in 10.0 mi NW 10.4 mph - N/A   Clear
6:35 AM 53.6 °F 39.2 °F 58% 30.01 in 10.0 mi NW 10.4 mph - N/A   Clear
7:15 AM 53.6 °F 39.2 °F 58% 30.03 in 10.0 mi NW 10.4 mph - N/A   Clear
7:55 AM 55.4 °F 41.0 °F 58% 30.04 in 10.0 mi NNW 9.2 mph 16.1 mph N/A   Clear
8:15 AM 55.4 °F 44.6 °F 67% 30.06 in 10.0 mi NW 10.4 mph 16.1 mph N/A   Clear
8:35 AM 55.4 °F 44.6 °F 67% 30.06 in 10.0 mi NW 12.7 mph - N/A   Clear
8:55 AM 55.4 °F 42.8 °F 63% 30.06 in 10.0 mi NNW 9.2 mph - N/A   Clear
9:15 AM 57.2 °F 41.0 °F 55% 30.06 in 10.0 mi North 9.2 mph - N/A   Clear
9:55 AM 57.2 °F 42.8 °F 59% 30.07 in 10.0 mi NW 9.2 mph - N/A   Clear
10:35 AM 57.2 °F 42.8 °F 59% 30.06 in 10.0 mi NNW 6.9 mph - N/A   Clear
10:56 AM 57.2 °F 42.8 °F 59% 30.06 in 10.0 mi NNW 6.9 mph - N/A   Clear
11:15 AM 57.2 °F 42.8 °F 59% 30.06 in 10.0 mi NNW 6.9 mph - N/A   Clear
11:35 AM 57.2 °F 42.8 °F 59% 30.05 in 10.0 mi North 8.1 mph - N/A   Clear
11:55 AM 57.2 °F 42.8 °F 59% 30.07 in 9.0 mi NNW 8.1 mph - N/A   Clear
12:15 PM 57.2 °F 42.8 °F 59% 30.06 in 10.0 mi NNW 6.9 mph - N/A   Clear
12:55 PM 57.2 °F 41.0 °F 55% 30.06 in 10.0 mi North 5.8 mph - N/A   Clear
1:15 PM 55.4 °F 41.0 °F 58% 30.06 in 10.0 mi Calm Calm - N/A   Partly Cloudy
1:35 PM 55.4 °F 41.0 °F 58% 30.04 in 10.0 mi Calm Calm - N/A   Mostly Cloudy
2:15 PM 55.4 °F 41.0 °F 58% 30.06 in 10.0 mi Calm Calm - N/A   Overcast
2:35 PM 55.4 °F 41.0 °F 58% 30.06 in 10.0 mi North 3.5 mph - N/A   Overcast
2:55 PM 55.4 °F 42.8 °F 63% 30.06 in 10.0 mi Calm Calm - N/A   Overcast
3:15 PM 55.4 °F 41.0 °F 58% 30.06 in 10.0 mi Calm Calm - N/A   Overcast
3:35 PM 53.6 °F 44.6 °F 72% 30.06 in 10.0 mi Calm Calm - N/A   Overcast
3:55 PM 53.6 °F 44.6 °F 72% 30.05 in 10.0 mi Calm Calm - N/A   Overcast
4:15 PM 53.6 °F 44.6 °F 72% 30.05 in 10.0 mi Calm Calm - N/A   Overcast
4:35 PM 53.6 °F 42.8 °F 67% 30.05 in 10.0 mi Calm Calm - N/A   Overcast
4:55 PM 53.6 °F 44.6 °F 72% 30.03 in 10.0 mi Calm Calm - N/A   Overcast
5:15 PM 53.6 °F 48.2 °F 82% 30.03 in 10.0 mi Calm Calm - 0.01 in   Overcast
5:55 PM 51.8 °F 48.2 °F 88% 30.06 in 10.0 mi Calm Calm - 0.03 in   Overcast
6:15 PM 51.8 °F 46.4 °F 82% 30.05 in 10.0 mi Calm Calm - 0.01 in   Overcast
6:35 PM 51.8 °F 48.2 °F 88% 30.06 in 10.0 mi Calm Calm - 0.01 in   Overcast
6:55 PM 51.8 °F 48.2 °F 88% 30.05 in 10.0 mi Calm Calm - 0.01 in   Overcast
7:15 PM 51.8 °F 48.2 °F 88% 30.04 in 10.0 mi Calm Calm - N/A   Overcast
7:35 PM 51.8 °F 48.2 °F 88% 30.05 in 10.0 mi Calm Calm - N/A   Overcast
8:15 PM 51.8 °F 48.2 °F 88% 30.04 in 10.0 mi Calm Calm - N/A   Overcast
8:55 PM 51.8 °F 48.2 °F 88% 30.01 in 10.0 mi ESE 6.9 mph - N/A   Overcast
9:15 PM 51.8 °F 48.2 °F 88% 30.00 in 10.0 mi ESE 6.9 mph - N/A   Overcast
9:35 PM 51.8 °F 46.4 °F 82% 30.01 in 10.0 mi East 3.5 mph - N/A   Overcast
10:15 PM 51.8 °F 48.2 °F 88% 30.03 in 10.0 mi Calm Calm - N/A   Overcast
10:35 PM 51.8 °F 48.2 °F 88% 30.03 in 5.0 mi Calm Calm - N/A   Overcast
11:15 PM 51.8 °F 48.2 °F 88% 30.04 in 6.0 mi West 6.9 mph - N/A   Overcast
11:35 PM 51.8 °F 48.2 °F 88% 30.04 in 7.0 mi West 8.1 mph - N/A   Overcast
11:55 PM 51.8 °F 48.2 °F 88% 30.05 in 7.0 mi West 13.8 mph 17.3 mph N/A   Mostly Cloudy